| time (UTC) | temp C | wind direction | speed KPH | gust KPH | rain 1hr cm | rain 24hr cm | rain mn cm | humidity % | barometer mb |
| 20260508030815 | 8 | 273 | 0.0 | 0.0 | 0.00 | 0.15 | 0.15 | 63 | 1007.8 |
| 20260508030313 | 8 | 280 | 0.0 | 0.0 | 0.00 | 0.15 | 0.15 | 58 | 1007.6 |
| 20260508025809 | 8 | 269 | 0.0 | 0.0 | 0.00 | 0.15 | 0.15 | 56 | 1007.7 |
| 20260508025307 | 8 | 286 | 0.0 | 0.0 | 0.00 | 0.15 | 0.15 | 54 | 1007.6 |
| 20260508024803 | 8 | 315 | 0.0 | 1.6 | 0.00 | 0.15 | 0.15 | 53 | 1007.7 |
| 20260508024300 | 8 | 284 | 1.6 | 1.6 | 0.00 | 0.15 | 0.15 | 52 | 1007.6 |
| 20260508023756 | 9 | 277 | 0.0 | 0.0 | 0.00 | 0.15 | 0.15 | 52 | 1007.5 |
| 20260508023253 | 9 | 251 | 0.0 | 0.0 | 0.00 | 0.15 | 0.15 | 51 | 1007.5 |
| 20260508022749 | 9 | 299 | 0.0 | 0.0 | 0.00 | 0.15 | 0.15 | 51 | 1007.5 |
| 20260508022246 | 9 | 275 | 1.6 | 1.6 | 0.00 | 0.15 | 0.15 | 50 | 1007.1 |
| 20260508021743 | 9 | 263 | 0.0 | 0.0 | 0.00 | 0.15 | 0.15 | 50 | 1007.1 |
| 20260508021238 | 10 | 264 | 0.0 | 1.6 | 0.00 | 0.15 | 0.15 | 51 | 1007.3 |
| 20260508020735 | 10 | 270 | 1.6 | 1.6 | 0.00 | 0.15 | 0.15 | 50 | 1007.3 |
| 20260508020233 | 10 | 264 | 0.0 | 0.0 | 0.00 | 0.15 | 0.15 | 49 | 1007.3 |
| 20260508015730 | 10 | 287 | 1.6 | 1.6 | 0.00 | 0.15 | 0.15 | 50 | 1007.3 |
| 20260508015227 | 10 | 286 | 1.6 | 1.6 | 0.00 | 0.15 | 0.15 | 49 | 1007.1 |
| 20260508014724 | 10 | 313 | 0.0 | 0.0 | 0.00 | 0.15 | 0.15 | 48 | 1007.0 |
| 20260508014221 | 10 | 2 | 6.4 | 9.7 | 0.00 | 0.15 | 0.15 | 47 | 1007.1 |
| 20260508013716 | 10 | 57 | 1.6 | 1.6 | 0.00 | 0.15 | 0.15 | 48 | 1006.9 |
| 20260508013213 | 10 | 288 | 3.2 | 6.4 | 0.00 | 0.15 | 0.15 | 47 | 1006.8 |
| 20260508012711 | 10 | 247 | 1.6 | 3.2 | 0.00 | 0.15 | 0.15 | 47 | 1007.0 |
| 20260508012207 | 10 | 356 | 6.4 | 6.4 | 0.00 | 0.15 | 0.15 | 46 | 1006.9 |
| 20260508011706 | 10 | 274 | 1.6 | 3.2 | 0.00 | 0.15 | 0.15 | 47 | 1006.6 |
| 20260508011203 | 11 | 271 | 1.6 | 1.6 | 0.00 | 0.15 | 0.15 | 48 | 1006.7 |
| 20260508010659 | 11 | 332 | 0.0 | 1.6 | 0.00 | 0.15 | 0.15 | 45 | 1006.7 |
| 20260508010157 | 11 | 28 | 4.8 | 4.8 | 0.00 | 0.15 | 0.15 | 46 | 1006.5 |
| 20260508005654 | 11 | 296 | 1.6 | 1.6 | 0.00 | 0.15 | 0.15 | 45 | 1006.6 |
| 20260508005151 | 11 | 303 | 0.0 | 1.6 | 0.00 | 0.15 | 0.15 | 47 | 1006.3 |
| 20260508004646 | 11 | 359 | 1.6 | 1.6 | 0.00 | 0.15 | 0.15 | 46 | 1006.4 |
| 20260508004143 | 11 | 292 | 0.0 | 0.0 | 0.00 | 0.15 | 0.15 | 46 | 1006.2 |
| 20260508003639 | 11 | 279 | 0.0 | 0.0 | 0.00 | 0.15 | 0.15 | 47 | 1006.1 |
| 20260508003137 | 11 | 335 | 0.0 | 0.0 | 0.00 | 0.15 | 0.15 | 44 | 1005.9 |
| 20260508002633 | 11 | 276 | 1.6 | 3.2 | 0.00 | 0.15 | 0.15 | 44 | 1005.7 |
| 20260508002132 | 12 | 313 | 0.0 | 0.0 | 0.00 | 0.15 | 0.15 | 42 | 1005.8 |
| 20260508001626 | 12 | 340 | 3.2 | 4.8 | 0.00 | 0.15 | 0.15 | 43 | 1005.7 |
| 20260508001123 | 12 | 244 | 3.2 | 3.2 | 0.00 | 0.15 | 0.15 | 42 | 1005.6 |
| 20260508000618 | 12 | 302 | 3.2 | 3.2 | 0.00 | 0.15 | 0.15 | 43 | 1005.5 |
| 20260508000116 | 12 | 350 | 1.6 | 1.6 | 0.00 | 0.15 | 0.15 | 41 | 1005.4 |
| 20260507235613 | 12 | 29 | 0.0 | 0.0 | 0.00 | 0.15 | 0.15 | 44 | 1005.4 |
| 20260507235110 | 12 | 273 | 3.2 | 4.8 | 0.00 | 0.15 | 0.15 | 43 | 1005.6 |
| 20260507234606 | 12 | 315 | 0.0 | 0.0 | 0.00 | 0.15 | 0.15 | 43 | 1005.5 |
| 20260507234103 | 13 | 7 | 1.6 | 4.8 | 0.00 | 0.15 | 0.15 | 42 | 1005.4 |
| 20260507233600 | 13 | 347 | 8.0 | 11.3 | 0.00 | 0.15 | 0.15 | 41 | 1005.2 |
| 20260507233059 | 13 | 308 | 1.6 | 1.6 | 0.00 | 0.15 | 0.15 | 44 | 1005.3 |
| 20260507232554 | 13 | 15 | 1.6 | 1.6 | 0.00 | 0.15 | 0.15 | 41 | 1005.1 |
| 20260507232052 | 13 | 279 | 0.0 | 1.6 | 0.00 | 0.15 | 0.15 | 41 | 1005.2 |
| 20260507231548 | 14 | 308 | 3.2 | 4.8 | 0.00 | 0.15 | 0.15 | 40 | 1005.2 |
| 20260507231046 | 14 | 17 | 1.6 | 3.2 | 0.00 | 0.15 | 0.15 | 40 | 1005.1 |
| 20260507230542 | 15 | 288 | 1.6 | 3.2 | 0.00 | 0.15 | 0.15 | 40 | 1004.9 |
| 20260507230038 | 15 | 245 | 3.2 | 4.8 | 0.00 | 0.15 | 0.15 | 39 | 1004.9 |
| 20260507225533 | 14 | 309 | 3.2 | 4.8 | 0.00 | 0.15 | 0.15 | 40 | 1004.8 |
| 20260507225030 | 14 | 197 | 9.7 | 12.9 | 0.00 | 0.15 | 0.15 | 39 | 1004.7 |
| 20260507224526 | 15 | 294 | 3.2 | 4.8 | 0.00 | 0.15 | 0.15 | 39 | 1004.8 |
| 20260507224023 | 15 | 224 | 4.8 | 4.8 | 0.00 | 0.15 | 0.15 | 39 | 1004.5 |
| 20260507223519 | 15 | 321 | 8.0 | 11.3 | 0.00 | 0.15 | 0.15 | 38 | 1004.6 |
| 20260507223016 | 15 | 231 | 4.8 | 6.4 | 0.00 | 0.15 | 0.15 | 39 | 1004.5 |
| 20260507222513 | 15 | 255 | 3.2 | 3.2 | 0.00 | 0.15 | 0.15 | 38 | 1004.4 |
| 20260507222009 | 15 | 257 | 6.4 | 6.4 | 0.00 | 0.15 | 0.15 | 36 | 1004.5 |
| 20260507221506 | 15 | 277 | 3.2 | 3.2 | 0.00 | 0.15 | 0.15 | 40 | 1004.2 |
| 20260507221003 | 15 | 238 | 6.4 | 6.4 | 0.00 | 0.15 | 0.15 | 40 | 1004.3 |
| 20260507220500 | 15 | 239 | 3.2 | 3.2 | 0.00 | 0.15 | 0.15 | 37 | 1004.2 |
| 20260507215957 | 15 | 269 | 6.4 | 9.7 | 0.00 | 0.15 | 0.15 | 38 | 1004.3 |
| 20260507215453 | 15 | 226 | 8.0 | 9.7 | 0.00 | 0.15 | 0.15 | 36 | 1004.3 |
| 20260507214951 | 16 | 281 | 6.4 | 9.7 | 0.00 | 0.15 | 0.15 | 35 | 1004.2 |
| 20260507214448 | 16 | 281 | 4.8 | 9.7 | 0.00 | 0.15 | 0.15 | 34 | 1004.3 |
| 20260507213943 | 16 | 261 | 1.6 | 3.2 | 0.00 | 0.15 | 0.15 | 38 | 1004.2 |
| 20260507213440 | 16 | 272 | 1.6 | 1.6 | 0.00 | 0.15 | 0.15 | 39 | 1004.2 |
| 20260507212937 | 17 | 175 | 8.0 | 9.7 | 0.00 | 0.15 | 0.15 | 36 | 1004.1 |
| 20260507212427 | 16 | 304 | 4.8 | 6.4 | 0.00 | 0.15 | 0.15 | 35 | 1004.2 |
| 20260507211924 | 16 | 294 | 8.0 | 14.5 | 0.00 | 0.15 | 0.15 | 35 | 1004.3 |
| 20260507211421 | 16 | 44 | 6.4 | 6.4 | 0.00 | 0.15 | 0.15 | 36 | 1004.3 |
| 20260507210918 | 17 | 282 | 4.8 | 4.8 | 0.00 | 0.15 | 0.15 | 35 | 1004.0 |
| 20260507210415 | 16 | 268 | 0.0 | 0.0 | 0.00 | 0.15 | 0.15 | 38 | 1004.2 |
| 20260507205911 | 16 | 319 | 3.2 | 4.8 | 0.00 | 0.15 | 0.15 | 37 | 1004.3 |
| 20260507205409 | 15 | 302 | 3.2 | 4.8 | 0.00 | 0.15 | 0.15 | 36 | 1004.1 |
| 20260507204904 | 17 | 228 | 8.0 | 11.3 | 0.00 | 0.15 | 0.15 | 35 | 1003.9 |
| 20260507204401 | 16 | 277 | 1.6 | 3.2 | 0.00 | 0.15 | 0.15 | 37 | 1004.2 |
| 20260507203859 | 17 | 337 | 4.8 | 6.4 | 0.00 | 0.15 | 0.15 | 38 | 1004.0 |
| 20260507203357 | 16 | 285 | 3.2 | 6.4 | 0.00 | 0.15 | 0.15 | 36 | 1003.9 |
| 20260507202853 | 16 | 316 | 4.8 | 6.4 | 0.00 | 0.15 | 0.15 | 37 | 1004.2 |
| 20260507202349 | 16 | 211 | 6.4 | 6.4 | 0.00 | 0.15 | 0.15 | 37 | 1003.9 |
| 20260507201845 | 16 | 238 | 1.6 | 3.2 | 0.00 | 0.15 | 0.15 | 38 | 1003.8 |
| 20260507201341 | 16 | 24 | 9.7 | 11.3 | 0.00 | 0.15 | 0.15 | 37 | 1003.9 |
| 20260507200837 | 16 | 318 | 6.4 | 9.7 | 0.00 | 0.15 | 0.15 | 38 | 1004.1 |
| 20260507200333 | 16 | 250 | 3.2 | 6.4 | 0.00 | 0.15 | 0.15 | 39 | 1004.0 |
| 20260507195829 | 17 | 195 | 4.8 | 4.8 | 0.00 | 0.15 | 0.15 | 39 | 1004.1 |
| 20260507195327 | 17 | 305 | 3.2 | 4.8 | 0.00 | 0.15 | 0.15 | 38 | 1004.1 |
| 20260507194824 | 16 | 211 | 3.2 | 3.2 | 0.00 | 0.15 | 0.15 | 41 | 1004.0 |
| 20260507194320 | 15 | 242 | 8.0 | 9.7 | 0.00 | 0.15 | 0.15 | 40 | 1004.1 |
| 20260507193817 | 16 | 255 | 11.3 | 17.7 | 0.00 | 0.15 | 0.15 | 39 | 1004.3 |
| 20260507193314 | 16 | 16 | 4.8 | 9.7 | 0.00 | 0.15 | 0.15 | 41 | 1004.1 |
| 20260507192809 | 16 | 21 | 0.0 | 3.2 | 0.00 | 0.15 | 0.15 | 41 | 1004.3 |
| 20260507192307 | 15 | 266 | 1.6 | 3.2 | 0.00 | 0.15 | 0.15 | 45 | 1004.5 |
| 20260507191803 | 15 | 261 | 3.2 | 4.8 | 0.00 | 0.15 | 0.15 | 46 | 1004.4 |
| 20260507191259 | 15 | 289 | 6.4 | 6.4 | 0.00 | 0.15 | 0.15 | 43 | 1004.4 |
| 20260507190756 | 15 | 300 | 0.0 | 0.0 | 0.00 | 0.15 | 0.15 | 43 | 1004.4 |
| 20260507190255 | 17 | 184 | 4.8 | 6.4 | 0.00 | 0.15 | 0.15 | 41 | 1004.3 |
| 20260507185753 | 17 | 257 | 3.2 | 4.8 | 0.00 | 0.15 | 0.15 | 42 | 1004.2 |
| 20260507185249 | 16 | 229 | 6.4 | 9.7 | 0.00 | 0.15 | 0.15 | 43 | 1004.1 |
| 20260507184747 | 16 | 214 | 1.6 | 3.2 | 0.00 | 0.15 | 0.15 | 42 | 1004.2 |
| 20260507184245 | 16 | 321 | 6.4 | 9.7 | 0.00 | 0.15 | 0.15 | 41 | 1004.5 |
| 20260507183741 | 16 | 279 | 8.0 | 11.3 | 0.00 | 0.15 | 0.15 | 41 | 1004.4 |
| 20260507183238 | 16 | 192 | 4.8 | 4.8 | 0.00 | 0.15 | 0.15 | 40 | 1004.7 |
| 20260507182736 | 16 | 207 | 6.4 | 11.3 | 0.00 | 0.15 | 0.15 | 39 | 1004.5 |
| 20260507182230 | 15 | 239 | 9.7 | 12.9 | 0.00 | 0.15 | 0.15 | 43 | 1004.5 |
| 20260507181728 | 15 | 221 | 12.9 | 16.1 | 0.00 | 0.15 | 0.15 | 42 | 1004.6 |
| 20260507181224 | 16 | 252 | 3.2 | 4.8 | 0.00 | 0.15 | 0.15 | 46 | 1004.6 |
| 20260507180721 | 16 | 250 | 4.8 | 4.8 | 0.00 | 0.15 | 0.15 | 47 | 1004.6 |
| 20260507180218 | 15 | 246 | 11.3 | 12.9 | 0.00 | 0.15 | 0.15 | 51 | 1004.4 |
| 20260507175713 | 15 | 307 | 12.9 | 16.1 | 0.00 | 0.15 | 0.15 | 51 | 1004.5 |
| 20260507175210 | 16 | 292 | 3.2 | 3.2 | 0.00 | 0.15 | 0.15 | 45 | 1004.6 |
| 20260507174708 | 16 | 211 | 9.7 | 11.3 | 0.00 | 0.15 | 0.15 | 46 | 1004.5 |
| 20260507174205 | 16 | 228 | 12.9 | 14.5 | 0.00 | 0.15 | 0.15 | 48 | 1004.6 |
| 20260507173703 | 15 | 214 | 6.4 | 6.4 | 0.00 | 0.15 | 0.15 | 50 | 1004.7 |
| 20260507173159 | 15 | 238 | 6.4 | 9.7 | 0.00 | 0.15 | 0.15 | 53 | 1004.9 |
| 20260507172656 | 15 | 234 | 12.9 | 14.5 | 0.00 | 0.15 | 0.15 | 49 | 1004.9 |
| 20260507172147 | 15 | 287 | 4.8 | 4.8 | 0.00 | 0.15 | 0.15 | 57 | 1004.9 |
| 20260507171641 | 15 | 266 | 3.2 | 4.8 | 0.00 | 0.15 | 0.15 | 57 | 1004.9 |
| 20260507171138 | 15 | 274 | 6.4 | 11.3 | 0.00 | 0.15 | 0.15 | 54 | 1004.8 |
| 20260507170635 | 15 | 272 | 4.8 | 6.4 | 0.00 | 0.15 | 0.15 | 54 | 1004.8 |
| 20260507170133 | 15 | 255 | 9.7 | 16.1 | 0.00 | 0.15 | 0.15 | 54 | 1004.9 |
| 20260507165628 | 16 | 298 | 3.2 | 12.9 | 0.00 | 0.15 | 0.15 | 52 | 1005.0 |
| 20260507165125 | 16 | 220 | 4.8 | 4.8 | 0.00 | 0.15 | 0.15 | 55 | 1005.0 |
| 20260507164620 | 16 | 269 | 4.8 | 6.4 | 0.00 | 0.15 | 0.15 | 55 | 1005.3 |
| 20260507164118 | 15 | 316 | 9.7 | 11.3 | 0.00 | 0.15 | 0.15 | 57 | 1005.2 |
| 20260507163615 | 15 | 224 | 4.8 | 4.8 | 0.00 | 0.15 | 0.15 | 59 | 1005.2 |
| 20260507163114 | 14 | 252 | 3.2 | 4.8 | 0.00 | 0.15 | 0.15 | 58 | 1005.2 |
| 20260507162614 | 15 | 277 | 9.7 | 12.9 | 0.00 | 0.15 | 0.15 | 56 | 1005.2 |
| 20260507162111 | 15 | 270 | 3.2 | 4.8 | 0.00 | 0.15 | 0.15 | 59 | 1005.3 |
| 20260507161607 | 15 | 252 | 4.8 | 4.8 | 0.00 | 0.15 | 0.15 | 60 | 1005.2 |
| 20260507161103 | 15 | 268 | 4.8 | 6.4 | 0.00 | 0.15 | 0.15 | 59 | 1005.3 |
| 20260507160554 | 15 | 283 | 4.8 | 4.8 | 0.00 | 0.15 | 0.15 | 62 | 1005.5 |
| 20260507160051 | 15 | 14 | 6.4 | 9.7 | 0.00 | 0.15 | 0.15 | 60 | 1005.6 |
| 20260507155546 | 16 | 240 | 11.3 | 12.9 | 0.00 | 0.15 | 0.15 | 52 | 1005.4 |
| 20260507155044 | 16 | 217 | 8.0 | 9.7 | 0.00 | 0.15 | 0.15 | 54 | 1005.5 |
| 20260507154540 | 15 | 255 | 1.6 | 1.6 | 0.00 | 0.15 | 0.15 | 59 | 1005.6 |
| 20260507154037 | 14 | 201 | 4.8 | 6.4 | 0.00 | 0.15 | 0.15 | 59 | 1005.5 |
| 20260507153534 | 14 | 272 | 6.4 | 9.7 | 0.00 | 0.15 | 0.15 | 58 | 1005.7 |
| 20260507153030 | 15 | 231 | 3.2 | 3.2 | 0.00 | 0.15 | 0.15 | 58 | 1005.8 |
| 20260507152526 | 15 | 210 | 6.4 | 6.4 | 0.00 | 0.15 | 0.15 | 59 | 1005.8 |
| 20260507152023 | 15 | 252 | 0.0 | 0.0 | 0.00 | 0.15 | 0.15 | 60 | 1005.7 |
| 20260507151519 | 16 | 303 | 1.6 | 1.6 | 0.00 | 0.15 | 0.15 | 58 | 1005.6 |
| 20260507151016 | 16 | 294 | 0.0 | 1.6 | 0.00 | 0.15 | 0.15 | 61 | 1005.9 |
| 20260507150513 | 15 | 30 | 1.6 | 3.2 | 0.00 | 0.15 | 0.15 | 59 | 1005.8 |
| 20260507150010 | 15 | 275 | 4.8 | 6.4 | 0.00 | 0.15 | 0.15 | 60 | 1005.7 |
| 20260507145505 | 15 | 217 | 1.6 | 1.6 | 0.00 | 0.15 | 0.15 | 62 | 1005.7 |
| 20260507145003 | 15 | 304 | 3.2 | 4.8 | 0.00 | 0.15 | 0.15 | 60 | 1005.7 |
| 20260507144459 | 15 | 279 | 1.6 | 1.6 | 0.00 | 0.15 | 0.15 | 60 | 1005.7 |
| 20260507143956 | 14 | 11 | 4.8 | 4.8 | 0.00 | 0.15 | 0.15 | 61 | 1006.0 |
| 20260507143454 | 15 | 296 | 0.0 | 0.0 | 0.00 | 0.15 | 0.15 | 69 | 1006.0 |
| 20260507142950 | 14 | 286 | 3.2 | 4.8 | 0.00 | 0.15 | 0.15 | 65 | 1005.9 |
| 20260507142446 | 14 | 299 | 3.2 | 3.2 | 0.00 | 0.15 | 0.15 | 65 | 1006.1 |
| 20260507141943 | 14 | 239 | 1.6 | 1.6 | 0.00 | 0.15 | 0.15 | 64 | 1006.2 |
| 20260507141439 | 14 | 239 | 4.8 | 4.8 | 0.00 | 0.15 | 0.15 | 65 | 1006.1 |
| 20260507140936 | 13 | 40 | 1.6 | 3.2 | 0.00 | 0.15 | 0.15 | 64 | 1006.3 |
| 20260507140433 | 14 | 290 | 8.0 | 9.7 | 0.00 | 0.15 | 0.15 | 65 | 1006.3 |
| 20260507135931 | 13 | 239 | 3.2 | 4.8 | 0.00 | 0.15 | 0.15 | 66 | 1006.3 |
| 20260507135427 | 13 | 273 | 3.2 | 4.8 | 0.00 | 0.15 | 0.15 | 69 | 1006.4 |
| 20260507134925 | 13 | 242 | 4.8 | 6.4 | 0.00 | 0.15 | 0.15 | 68 | 1006.5 |
| 20260507134421 | 13 | 274 | 1.6 | 1.6 | 0.00 | 0.15 | 0.15 | 69 | 1006.4 |
| 20260507133917 | 13 | 178 | 3.2 | 4.8 | 0.00 | 0.15 | 0.15 | 74 | 1006.5 |
| 20260507133412 | 13 | 264 | 3.2 | 4.8 | 0.00 | 0.15 | 0.15 | 76 | 1006.5 |
| 20260507132906 | 13 | 260 | 0.0 | 1.6 | 0.00 | 0.15 | 0.15 | 76 | 1006.6 |
| 20260507132402 | 13 | 284 | 6.4 | 6.4 | 0.00 | 0.15 | 0.15 | 73 | 1006.5 |
| 20260507131858 | 12 | 260 | 0.0 | 1.6 | 0.00 | 0.15 | 0.15 | 76 | 1006.6 |
| 20260507131355 | 12 | 53 | 3.2 | 3.2 | 0.00 | 0.15 | 0.15 | 76 | 1006.7 |
| 20260507130852 | 12 | 338 | 1.6 | 1.6 | 0.00 | 0.15 | 0.15 | 75 | 1006.5 |
| 20260507130349 | 12 | 289 | 3.2 | 4.8 | 0.00 | 0.15 | 0.15 | 74 | 1006.7 |
| 20260507125848 | 12 | 296 | 4.8 | 6.4 | 0.00 | 0.15 | 0.15 | 74 | 1006.7 |
| 20260507125345 | 12 | 45 | 3.2 | 3.2 | 0.00 | 0.15 | 0.15 | 74 | 1006.8 |
| 20260507124843 | 12 | 58 | 3.2 | 3.2 | 0.00 | 0.15 | 0.15 | 75 | 1006.6 |
| 20260507124338 | 12 | 298 | 1.6 | 1.6 | 0.00 | 0.15 | 0.15 | 75 | 1006.6 |
| 20260507123838 | 12 | 241 | 3.2 | 3.2 | 0.00 | 0.15 | 0.15 | 76 | 1006.5 |
| 20260507123334 | 11 | 312 | 4.8 | 4.8 | 0.00 | 0.15 | 0.15 | 79 | 1006.7 |
| 20260507122831 | 11 | 279 | 1.6 | 1.6 | 0.00 | 0.15 | 0.15 | 77 | 1006.7 |
| 20260507122326 | 11 | 267 | 1.6 | 4.8 | 0.00 | 0.15 | 0.15 | 80 | 1006.6 |
| 20260507121823 | 11 | 281 | 3.2 | 3.2 | 0.00 | 0.15 | 0.15 | 81 | 1006.7 |
| 20260507121318 | 11 | 239 | 6.4 | 6.4 | 0.00 | 0.15 | 0.15 | 79 | 1006.6 |
| 20260507120815 | 11 | 302 | 0.0 | 0.0 | 0.00 | 0.15 | 0.15 | 85 | 1006.7 |
| 20260507120311 | 10 | 250 | 3.2 | 4.8 | 0.00 | 0.15 | 0.15 | 83 | 1006.4 |
| 20260507115807 | 10 | 248 | 3.2 | 3.2 | 0.00 | 0.15 | 0.15 | 85 | 1006.8 |
| 20260507115306 | 10 | 285 | 1.6 | 1.6 | 0.00 | 0.15 | 0.15 | 84 | 1006.7 |
| 20260507114759 | 10 | 233 | 3.2 | 3.2 | 0.00 | 0.15 | 0.15 | 85 | 1006.8 |
| 20260507114256 | 10 | 289 | 1.6 | 1.6 | 0.00 | 0.15 | 0.15 | 87 | 1007.0 |
| 20260507113754 | 10 | 284 | 0.0 | 0.0 | 0.13 | 0.15 | 0.15 | 86 | 1006.8 |
| 20260507113250 | 10 | 349 | 0.0 | 0.0 | 0.13 | 0.15 | 0.15 | 88 | 1006.8 |
| 20260507112748 | 8 | 309 | 0.0 | 0.0 | 0.00 | 0.13 | 0.13 | 92 | 1006.4 |
| 20260507112245 | 8 | 283 | 0.0 | 0.0 | 0.00 | 0.13 | 0.13 | 93 | 1006.8 |
| 20260507111743 | 8 | 270 | 0.0 | 0.0 | 0.00 | 0.13 | 0.13 | 93 | 1006.7 |
| 20260507111239 | 8 | 277 | 0.0 | 0.0 | 0.00 | 0.13 | 0.13 | 93 | 1007.0 |
| 20260507110735 | 8 | 304 | 0.0 | 0.0 | 0.00 | 0.13 | 0.13 | 95 | 1006.9 |
| 20260507110232 | 8 | 277 | 0.0 | 0.0 | 0.00 | 0.13 | 0.13 | 95 | 1007.1 |
| 20260507105729 | 8 | 261 | 0.0 | 0.0 | 0.00 | 0.13 | 0.13 | 95 | 1007.1 |
| 20260507105225 | 8 | 320 | 0.0 | 0.0 | 0.00 | 0.13 | 0.13 | 96 | 1006.6 |
| 20260507104722 | 8 | 289 | 0.0 | 0.0 | 0.00 | 0.13 | 0.13 | 97 | 1006.8 |
| 20260507104219 | 8 | 283 | 0.0 | 0.0 | 0.00 | 0.13 | 0.13 | 97 | 1007.1 |
| 20260507103714 | 7 | 270 | 0.0 | 0.0 | 0.00 | 0.13 | 0.13 | 97 | 1007.2 |
| 20260507103205 | 7 | 259 | 0.0 | 0.0 | 0.00 | 0.13 | 0.13 | 98 | 1007.1 |
| 20260507102702 | 7 | 276 | 0.0 | 0.0 | 0.00 | 0.13 | 0.13 | 98 | 1007.0 |
| 20260507102159 | 7 | 291 | 0.0 | 0.0 | 0.00 | 0.13 | 0.13 | 98 | 1006.7 |
| 20260507101654 | 7 | 252 | 0.0 | 0.0 | 0.00 | 0.13 | 0.13 | 98 | 1007.4 |
| 20260507101150 | 7 | 302 | 0.0 | 0.0 | 0.00 | 0.13 | 0.13 | 97 | 1006.5 |
| 20260507100648 | 7 | 279 | 0.0 | 1.6 | 0.00 | 0.13 | 0.13 | 97 | 1006.8 |
| 20260507100146 | 7 | 275 | 0.0 | 0.0 | 0.00 | 0.13 | 0.13 | 97 | 1007.1 |
| 20260507095643 | 7 | 274 | 0.0 | 0.0 | 0.00 | 0.13 | 0.13 | 96 | 1007.0 |
| 20260507095140 | 7 | 262 | 0.0 | 0.0 | 0.00 | 0.13 | 0.13 | 96 | 1007.0 |
| 20260507094636 | 7 | 289 | 3.2 | 3.2 | 0.00 | 0.13 | 0.13 | 96 | 1006.7 |
| 20260507094133 | 7 | 294 | 1.6 | 1.6 | 0.00 | 0.13 | 0.13 | 95 | 1006.5 |
| 20260507093630 | 7 | 286 | 1.6 | 1.6 | 0.00 | 0.13 | 0.13 | 96 | 1006.4 |
| 20260507093129 | 7 | 300 | 3.2 | 4.8 | 0.00 | 0.13 | 0.13 | 95 | 1006.3 |
| 20260507092626 | 8 | 272 | 0.0 | 0.0 | 0.00 | 0.13 | 0.13 | 95 | 1006.6 |
| 20260507092122 | 8 | 292 | 3.2 | 4.8 | 0.00 | 0.13 | 0.13 | 94 | 1006.0 |
| 20260507091619 | 8 | 313 | 0.0 | 1.6 | 0.00 | 0.13 | 0.13 | 94 | 1006.0 |
| 20260507091114 | 8 | 214 | 0.0 | 0.0 | 0.00 | 0.13 | 0.13 | 94 | 1006.2 |
| 20260507090610 | 8 | 269 | 1.6 | 3.2 | 0.00 | 0.13 | 0.13 | 94 | 1006.2 |
| 20260507090108 | 8 | 313 | 0.0 | 0.0 | 0.00 | 0.13 | 0.13 | 94 | 1006.3 |
| 20260507085604 | 8 | 286 | 0.0 | 0.0 | 0.00 | 0.13 | 0.13 | 94 | 1006.4 |
| 20260507085101 | 8 | 290 | 1.6 | 3.2 | 0.00 | 0.13 | 0.13 | 94 | 1006.3 |
| 20260507084558 | 8 | 289 | 0.0 | 0.0 | 0.00 | 0.13 | 0.13 | 94 | 1006.4 |
| 20260507084055 | 8 | 41 | 1.6 | 3.2 | 0.00 | 0.13 | 0.13 | 94 | 1006.4 |
| 20260507083551 | 8 | 272 | 1.6 | 1.6 | 0.00 | 0.13 | 0.13 | 95 | 1006.9 |
| 20260507083048 | 8 | 291 | 0.0 | 1.6 | 0.00 | 0.13 | 0.13 | 96 | 1006.6 |
| 20260507082544 | 8 | 261 | 0.0 | 0.0 | 0.00 | 0.13 | 0.13 | 96 | 1006.6 |
| 20260507082041 | 8 | 293 | 1.6 | 3.2 | 0.00 | 0.13 | 0.13 | 97 | 1006.2 |
| 20260507081537 | 8 | 286 | 0.0 | 1.6 | 0.00 | 0.13 | 0.13 | 96 | 1006.0 |
| 20260507081034 | 8 | 296 | 1.6 | 3.2 | 0.00 | 0.13 | 0.13 | 97 | 1005.8 |
| 20260507080530 | 8 | 289 | 1.6 | 3.2 | 0.00 | 0.13 | 0.13 | 97 | 1006.1 |
| 20260507080027 | 8 | 300 | 0.0 | 1.6 | 0.00 | 0.13 | 0.13 | 97 | 1006.7 |
| 20260507075522 | 8 | 28 | 3.2 | 3.2 | 0.00 | 0.13 | 0.13 | 98 | 1006.4 |
| 20260507075019 | 8 | 302 | 0.0 | 0.0 | 0.00 | 0.13 | 0.13 | 98 | 1006.0 |
| 20260507074515 | 8 | 301 | 0.0 | 0.0 | 0.00 | 0.13 | 0.13 | 98 | 1006.1 |
| 20260507074014 | 8 | 324 | 0.0 | 1.6 | 0.00 | 0.13 | 0.13 | 98 | 1005.8 |
| 20260507073510 | 8 | 17 | 3.2 | 3.2 | 0.00 | 0.13 | 0.13 | 98 | 1005.7 |
| 20260507073006 | 8 | 28 | 3.2 | 3.2 | 0.00 | 0.13 | 0.13 | 98 | 1006.0 |
| 20260507072504 | 8 | 8 | 0.0 | 1.6 | 0.00 | 0.13 | 0.13 | 98 | 1005.8 |
| 20260507072001 | 8 | 340 | 1.6 | 1.6 | 0.00 | 0.13 | 0.13 | 97 | 1005.5 |
| 20260507071458 | 8 | 309 | 0.0 | 0.0 | 0.00 | 0.13 | 0.13 | 97 | 1005.8 |
| 20260507070955 | 8 | 11 | 4.8 | 6.4 | 0.00 | 0.13 | 0.13 | 97 | 1005.9 |
| 20260507070452 | 8 | 320 | 3.2 | 3.2 | 0.00 | 0.13 | 0.13 | 97 | 1005.7 |
| 20260507065949 | 9 | 23 | 3.2 | 4.8 | 0.00 | 0.13 | 0.13 | 96 | 1005.8 |
| 20260507065445 | 9 | 325 | 3.2 | 4.8 | 0.00 | 0.13 | 0.13 | 97 | 1005.7 |
| 20260507064943 | 9 | 11 | 3.2 | 3.2 | 0.00 | 0.13 | 0.13 | 98 | 1005.7 |
| 20260507064441 | 9 | 313 | 0.0 | 1.6 | 0.00 | 0.13 | 0.13 | 99 | 1005.5 |
| 20260507063938 | 9 | 316 | 3.2 | 3.2 | 0.00 | 0.13 | 0.13 | 99 | 1005.4 |
| 20260507063435 | 9 | 289 | 1.6 | 1.6 | 0.00 | 0.13 | 0.13 | 99 | 1005.4 |
| 20260507062932 | 9 | 276 | 0.0 | 1.6 | 0.00 | 0.13 | 0.13 | 99 | 1005.4 |
| 20260507062429 | 9 | 298 | 0.0 | 0.0 | 0.00 | 0.13 | 0.13 | 99 | 1005.1 |
| 20260507061926 | 9 | 32 | 1.6 | 1.6 | 0.00 | 0.13 | 0.13 | 99 | 1005.2 |
| 20260507061424 | 9 | 283 | 1.6 | 3.2 | 0.00 | 0.13 | 0.13 | 99 | 1005.3 |
| 20260507060923 | 9 | 270 | 1.6 | 1.6 | 0.00 | 0.13 | 0.13 | 99 | 1005.2 |
| 20260507060419 | 9 | 344 | 0.0 | 0.0 | 0.00 | 0.13 | 0.13 | 99 | 1005.1 |
| 20260507055916 | 10 | 324 | 1.6 | 1.6 | 0.00 | 0.13 | 0.13 | 99 | 1005.2 |
| 20260507055411 | 10 | 307 | 1.6 | 3.2 | 0.00 | 0.13 | 0.13 | 99 | 1005.1 |
| 20260507054908 | 10 | 307 | 1.6 | 1.6 | 0.00 | 0.13 | 0.13 | 99 | 1005.1 |
| 20260507054404 | 10 | 282 | 0.0 | 1.6 | 0.00 | 0.13 | 0.13 | 99 | 1005.3 |
| 20260507053901 | 10 | 292 | 0.0 | 0.0 | 0.00 | 0.13 | 0.13 | 99 | 1005.3 |
| 20260507053359 | 10 | 282 | 1.6 | 3.2 | 0.00 | 0.13 | 0.13 | 99 | 1005.2 |
| 20260507052858 | 10 | 346 | 0.0 | 0.0 | 0.00 | 0.13 | 0.13 | 99 | 1005.0 |
| 20260507052354 | 10 | 278 | 0.0 | 0.0 | 0.00 | 0.13 | 0.13 | 99 | 1005.2 |
| 20260507051852 | 10 | 42 | 0.0 | 0.0 | 0.00 | 0.13 | 0.13 | 99 | 1005.2 |
| 20260507051349 | 10 | 287 | 1.6 | 1.6 | 0.00 | 0.13 | 0.13 | 99 | 1005.2 |
| 20260507050845 | 10 | 40 | 0.0 | 0.0 | 0.00 | 0.13 | 0.13 | 99 | 1004.9 |
| 20260507050342 | 10 | 277 | 0.0 | 0.0 | 0.00 | 0.13 | 0.13 | 99 | 1004.8 |
| 20260507045833 | 10 | 305 | 3.2 | 3.2 | 0.00 | 0.13 | 0.13 | 99 | 1004.8 |
| 20260507045330 | 11 | 28 | 4.8 | 6.4 | 0.00 | 0.13 | 0.13 | 99 | 1004.9 |
| 20260507044827 | 12 | 54 | 4.8 | 4.8 | 0.00 | 0.13 | 0.13 | 99 | 1004.6 |
| 20260507044324 | 12 | 326 | 1.6 | 1.6 | 0.00 | 0.13 | 0.13 | 99 | 1004.5 |
| 20260507043820 | 12 | 341 | 6.4 | 11.3 | 0.00 | 0.13 | 0.13 | 99 | 1004.4 |
| 20260507043316 | 13 | 302 | 3.2 | 3.2 | 0.00 | 0.13 | 0.13 | 99 | 1004.6 |
| 20260507042813 | 13 | 247 | 1.6 | 1.6 | 0.00 | 0.13 | 0.13 | 99 | 1004.4 |
| 20260507042309 | 13 | 272 | 1.6 | 1.6 | 0.18 | 0.13 | 0.13 | 99 | 1004.5 |
| 20260507041806 | 13 | 269 | 1.6 | 3.2 | 0.30 | 0.13 | 0.13 | 99 | 1004.2 |
| 20260507041302 | 13 | 269 | 1.6 | 3.2 | 0.48 | 0.10 | 0.10 | 99 | 1004.2 |
| 20260507040800 | 13 | 282 | 0.0 | 1.6 | 0.66 | 0.08 | 0.08 | 99 | 1004.2 |
| 20260507040255 | 13 | 283 | 0.0 | 0.0 | 0.43 | 0.03 | 0.03 | 99 | 1004.3 |
| 20260507035751 | 12 | 255 | 0.0 | 0.0 | 0.13 | 0.91 | 0.91 | 99 | 1004.4 |
| 20260507035247 | 12 | 282 | 0.0 | 0.0 | 0.13 | 0.91 | 0.91 | 99 | 1004.4 |
| 20260507034745 | 12 | 285 | 0.0 | 0.0 | 0.00 | 0.89 | 0.89 | 99 | 1004.4 |
| 20260507034241 | 12 | 279 | 0.0 | 0.0 | 0.00 | 0.89 | 0.89 | 99 | 1004.0 |
| 20260507033740 | 12 | 279 | 0.0 | 0.0 | 0.00 | 0.89 | 0.89 | 99 | 1004.0 |
| 20260507033237 | 12 | 292 | 0.0 | 0.0 | 0.00 | 0.89 | 0.89 | 99 | 1003.9 |
| 20260507032734 | 12 | 298 | 0.0 | 0.0 | 0.00 | 0.89 | 0.89 | 99 | 1003.9 |
| 20260507032230 | 12 | 288 | 0.0 | 0.0 | 0.00 | 0.89 | 0.89 | 99 | 1003.8 |
| 20260507031727 | 12 | 306 | 0.0 | 0.0 | 0.00 | 0.89 | 0.89 | 99 | 1003.7 |
| 20260507031223 | 12 | 294 | 0.0 | 0.0 | 0.00 | 0.89 | 0.89 | 99 | 1003.7 |